Вернуться в каталог

STTW-4

АктивенВоенныеGEO
NORAD 20473·PAYLOAD·🇨🇳 China

Запущен Feb 4, 1990 с Xichang Satellite Launch Center

Loading…

TLE

СвежийSource: Space-Track

Эпоха: Sep 10, 2026, 22:43 UTC

1 20473U 90011A   26253.94687833 -.00000301  00000-0  00000+0 0  9997
2 20473  14.1140 345.7583 0003205 181.0681 259.8499  1.00250646133905

Отслеживайте STTW-4 в реальном времени с AllMySat

Download on the App Store